Location: Sungai Bunut
(2.6333°N, 113.7333°E)
Time: 10:27:36
(UTC+00:00)

Transit 2A Rocket - Pass Details

Date: 08 December 2023
Orbit: 590 x 905 km, 66.7° (Epoch: 01 March)

Event Time Altitude Azimuth Distance (km) Brightness Sun altitude
Rises 00:08:50 0° 312° (NW) 3,024 7.5 24.6°
Reaches altitude 10° 00:11:37 10° 295° (WNW) 2,168 6.9 25.2°
Maximum altitude 00:15:10 20° 248° (WSW) 1,670 6.6 26.0°
Drops below altitude 10° 00:18:58 10° 202° (SSW) 2,326 7.6 26.8°
Sets 00:22:07 0° 186° (S) 3,320 8.6 27.5°
